EW0605 Weather Reports


time (UTC)temp
F
wind
direction
speed
knots
gust
knots
rain 1hr
in
rain 24hr
in
rain mn
in
humidity
%
barometer
mb
20260510213039 47 56 5.2 10.4 0.00 0.00 0.00 49 1022.4
20260510211528 47 340 4.3 12.2 0.00 0.00 0.00 47 1022.1
20260510210035 47 328 1.7 12.2 0.00 0.00 0.00 49 1022.0
20260510204527 47 358 5.2 9.6 0.00 0.00 0.00 49 1022.0
20260510203021 47 46 0.9 13.0 0.00 0.00 0.00 52 1021.8
20260510201519 47 357 8.7 13.9 0.00 0.00 0.00 49 1022.0
20260510200018 47 301 3.5 9.6 0.00 0.00 0.00 48 1021.8
20260510194516 47 311 5.2 10.4 0.00 0.00 0.00 50 1021.7
20260510193017 47 307 4.3 15.6 0.00 0.00 0.00 46 1021.6
20260510191513 47 20 7.8 15.6 0.00 0.00 0.00 49 1021.6
20260510190011 47 335 4.3 10.4 0.00 0.00 0.00 52 1021.6
20260510184510 46 324 4.3 11.3 0.00 0.00 0.00 49 1021.7
20260510183008 45 4 7.0 12.2 0.00 0.00 0.00 53 1021.5
20260510181505 46 335 7.0 13.0 0.00 0.00 0.00 52 1021.2
20260510180007 45 291 6.1 13.9 0.00 0.00 0.00 53 1021.3
20260510174504 46 322 5.2 13.9 0.00 0.00 0.00 55 1021.1
20260510173100 44 327 6.1 12.2 0.00 0.00 0.00 56 1020.9
20260510171604 45 349 4.3 16.5 0.00 0.00 0.00 56 1020.9
20260510170059 44 23 5.2 12.2 0.00 0.00 0.00 56 1021.0
20260510164558 44 330 6.1 11.3 0.00 0.00 0.00 55 1021.1
20260510163100 44 314 5.2 10.4 0.00 0.00 0.00 55 1020.9
20260510161554 43 24 5.2 7.8 0.00 0.00 0.00 59 1020.7
20260510160057 43 41 4.3 8.7 0.00 0.00 0.00 58 1020.4
20260510154555 44 357 6.1 9.6 0.00 0.00 0.00 59 1020.3
20260510153051 43 346 6.1 13.9 0.00 0.00 0.00 62 1020.2
20260510151550 42 328 6.1 11.3 0.00 0.00 0.00 62 1020.1
20260510150047 43 337 7.0 13.9 0.00 0.00 0.00 65 1019.9
20260510144547 41 312 4.3 13.0 0.00 0.00 0.00 68 1019.8
20260510143050 42 286 6.1 12.2 0.00 0.00 0.00 67 1019.6
20260510141542 41 345 5.2 11.3 0.00 0.00 0.00 69 1019.5
20260510140040 41 307 5.2 12.2 0.00 0.00 0.00 70 1019.2
20260510134543 41 319 7.0 10.4 0.00 0.00 0.00 69 1019.2
20260510133038 40 299 6.1 12.2 0.00 0.00 0.00 71 1019.2
20260510131535 40 271 5.2 10.4 0.00 0.00 0.00 71 1018.9
20260510130034 40 329 5.2 9.6 0.00 0.00 0.00 72 1018.8
20260510124533 40 312 4.3 13.0 0.00 0.00 0.00 74 1018.5
20260510123030 39 319 6.1 11.3 0.00 0.00 0.00 73 1018.3
20260510121529 39 293 5.2 12.2 0.00 0.00 0.00 74 1018.1
20260510120027 38 304 4.3 12.2 0.00 0.00 0.00 75 1017.8
20260510114529 37 293 6.1 9.6 0.00 0.00 0.00 77 1017.7
20260510113022 37 304 2.6 6.1 0.00 0.00 0.00 78 1017.6
20260510111520 36 288 1.7 4.3 0.00 0.00 0.00 78 1017.4
20260510110017 36 285 2.6 4.3 0.00 0.00 0.00 77 1017.1
20260510104514 37 293 1.7 5.2 0.00 0.00 0.00 75 1016.8
20260510103011 37 278 4.3 7.0 0.00 0.00 0.00 74 1016.6
20260510101511 37 304 2.6 6.1 0.00 0.00 0.00 74 1016.3
20260510100007 38 276 3.5 6.1 0.00 0.00 0.00 72 1016.1
20260510094505 38 281 3.5 7.8 0.00 0.00 0.00 72 1015.9
20260510093003 38 271 0.9 4.3 0.00 0.00 0.00 72 1015.7
20260510091559 38 300 0.9 4.3 0.00 0.00 0.00 71 1015.4
20260510090056 38 290 0.9 4.3 0.00 0.00 0.00 69 1015.4
20260510084553 39 270 0.0 5.2 0.00 0.00 0.00 68 1015.1
20260510083054 39 305 1.7 3.5 0.00 0.00 0.00 67 1015.0
20260510081549 40 266 0.9 4.3 0.00 0.00 0.00 65 1014.9
20260510080044 40 267 0.0 1.7 0.00 0.00 0.00 64 1014.9
20260510074541 41 293 0.9 4.3 0.00 0.00 0.00 61 1014.7
20260510073038 42 226 0.0 3.5 0.00 0.00 0.00 59 1014.6
20260510071545 41 245 0.0 2.6 0.00 0.00 0.00 59 1014.5
20260510070034 42 255 0.0 2.6 0.00 0.00 0.00 58 1014.5
20260510064533 42 282 0.0 0.9 0.00 0.00 0.00 57 1014.4
20260510063031 42 275 0.0 1.7 0.00 0.00 0.00 56 1014.3
20260510061540 43 252 0.0 2.6 0.00 0.00 0.00 55 1014.3
20260510060030 43 281 0.0 4.3 0.00 0.00 0.00 54 1014.3
20260510054527 44 300 4.3 9.6 0.00 0.00 0.00 53 1014.1
20260510053022 43 259 0.0 2.6 0.00 0.00 0.00 53 1014.0
20260510051521 43 214 0.0 2.6 0.00 0.00 0.00 54 1013.9
20260510050023 42 274 0.0 1.7 0.00 0.00 0.00 55 1013.8
20260510044518 41 243 0.0 2.6 0.00 0.00 0.00 59 1013.7
20260510043021 41 215 0.0 2.6 0.00 0.00 0.00 59 1013.7
20260510041516 40 210 0.0 1.7 0.00 0.00 0.00 63 1013.6
20260510040116 39 186 0.0 0.9 0.00 0.00 0.00 64 1013.6
20260510034514 39 218 0.0 0.9 0.00 0.00 0.00 65 1013.6
20260510033024 39 188 0.0 0.0 0.00 0.00 0.00 65 1013.5
20260510031520 40 186 0.0 0.0 0.00 0.00 0.00 63 1013.3
20260510030006 41 285 0.0 0.9 0.00 0.00 0.00 60 1013.2
20260510024501 42 246 0.0 1.7 0.00 0.00 0.00 56 1013.1
20260510023056 44 276 0.0 2.6 0.00 0.00 0.00 53 1013.0
20260510021554 44 290 0.9 2.6 0.00 0.00 0.00 52 1012.8
20260510020052 44 290 0.0 0.9 0.00 0.00 0.00 52 1012.5
20260510014549 45 8 0.0 1.7 0.00 0.00 0.00 51 1012.3
20260510013051 45 12 0.0 1.7 0.00 0.00 0.00 49 1011.9
20260510011644 46 349 0.9 3.5 0.00 0.00 0.00 48 1011.6
20260510010043 47 4 3.5 7.8 0.00 0.00 0.00 45 1011.3
20260510004545 48 358 4.3 9.6 0.00 0.00 0.00 43 1011.1
20260510003100 49 321 4.3 13.9 0.00 0.00 0.00 42 1010.9
20260510001540 51 355 6.1 15.6 0.00 0.00 0.00 39 1010.7
20260510000040 51 347 7.0 13.9 0.00 0.00 0.00 39 1010.4
20260509234536 51 21 10.4 15.6 0.00 0.00 0.00 39 1010.3
20260509233030 52 326 7.8 16.5 0.00 0.00 0.00 39 1010.0
20260509231532 53 333 7.0 14.8 0.00 0.00 0.00 38 1009.8
20260509230031 53 331 6.1 13.0 0.00 0.00 0.00 38 1009.6
20260509224525 53 300 5.2 12.2 0.00 0.00 0.00 38 1009.3
20260509223024 53 345 7.0 12.2 0.00 0.00 0.00 38 1009.1
20260509221519 54 4 8.7 12.2 0.00 0.00 0.00 35 1008.9
20260509220018 52 278 4.3 13.0 0.00 0.00 0.00 38 1008.7
20260509214518 53 338 6.1 14.8 0.00 0.00 0.00 39 1008.7